Lubbock, TX

9:47 AM CDT on May 26, 2017 (GMT -0500)
Lubbock International

Weather History for KLBB - June, 2014

Change the Weather History Date:

Sunday, June 8, 2014

  Actual Average Record
Temperature  
Mean Temperature 68 °F 76 °F  
Max Temperature 75 °F 89 °F 106 °F (1981)
Min Temperature 61 °F 63 °F 43 °F (1915)
Degree Days  
Heating Degree Days 0 0  
Month to date heating degree days 0 0  
Since 1 June heating degree days 0 0  
Since 1 July heating degree days 3513 3377  
Cooling Degree Days 3 11  
Month to date cooling degree days 118 84  
Year to date cooling degree days 397 330  
Since 1 June cooling degree days 118 84  
Growing Degree Days 18 (Base 50)    
Moisture  
Dew Point 60 °F    
Average Humidity 76    
Maximum Humidity 90    
Minimum Humidity 61    
Precipitation  
Precipitation 0.21 in 0.11 in 1.87 in (1949)
Month to date precipitation 0.84 0.89  
Year to date precipitation 6.97 7.10  
Snow  
Snow 0.00 in 0.00 in T in (1949)
Month to date snowfall 0.0 0.0  
Since 1 June snowfall 0.0 0.0  
Since 1 July snowfall 4.2 8.2  
Snow Depth 0.00 in    
Sea Level Pressure  
Sea Level Pressure 29.91 in    
Wind  
Wind Speed 11 mph (ENE)    
Max Wind Speed 28 mph    
Max Gust Speed 31 mph    
Visibility 9 miles    
Events Rain , Thunderstorm    
T = Trace of Precipitation, MM = Missing Value Source: NWS Daily Summary

Daily Weather History Graph

Daily Weather History Graph

Search for Another Location

Airport or City:

Trip Planner

Search our weather history database for the weather conditions in past years. The results will help you decide how hot, cold, wet, or windy it might be!

Date:

Astronomy

Jun. 08, 2014 Rise Set
Actual Time 6:36 AM CDT 8:56 PM CDT
Civil Twilight 6:07 AM CDT 9:25 PM CDT
Nautical Twilight 5:32 AM CDT 10:00 PM CDT
Astronomical Twilight 4:53 AM CDT 10:39 PM CDT
Moon 4:28 PM CDT (6/8) 3:17 AM CDT (6/8)
Length of Visible Light 15h 17m
Length of Day
14h 19m
Waxing Gibbous, 77% of the Moon is Illuminated
Jun 8
Waxing Gibbous
Jun 12
Full
Jun 19
Last Quarter
Jun 27
New
Jul 5
First Quarter

Hourly Weather History & Observations

Time (CDT) Temp. Dew Point Humidity Pressure Visibility Wind Dir Wind Speed Gust Speed Precip Events Conditions
12:00 AM 64.0 °F 61.0 °F 90% 30.06 in 3.0 mi North 25.3 mph 36.8 mph 0.04 in Rain , Thunderstorm Light Thunderstorms and Rain
12:08 AM 63.0 °F 61.0 °F 93% 30.05 in 3.0 mi North 27.6 mph 40.3 mph 0.09 in Rain , Thunderstorm Light Thunderstorms and Rain
12:29 AM 62.1 °F 60.1 °F 93% 29.98 in 10.0 mi NNE 21.9 mph 34.5 mph 0.12 in Rain , Thunderstorm Light Thunderstorms and Rain
12:53 AM 63.0 °F 59.0 °F 87% 29.86 in 10.0 mi North 15.0 mph 21.9 mph 0.12 in Thunderstorm Thunderstorm
1:02 AM 63.0 °F 60.1 °F 90% 30.02 in 10.0 mi NE 11.5 mph 21.9 mph N/A   Scattered Clouds
1:53 AM 64.0 °F 59.0 °F 84% 29.90 in 10.0 mi NE 5.8 mph - N/A Thunderstorm Thunderstorm
2:44 AM 61.0 °F 59.0 °F 93% 30.05 in 2.5 mi NNE 16.1 mph 23.0 mph 0.09 in Rain , Thunderstorm Heavy Thunderstorms and Rain
2:51 AM 62.6 °F 57.2 °F 82% 30.04 in 6.0 mi NE 13.8 mph 23.0 mph 0.10 in Rain , Thunderstorm Light Thunderstorms and Rain
2:53 AM 62.1 °F 57.9 °F 86% 29.91 in 8.0 mi NE 15.0 mph - 0.10 in Rain , Thunderstorm Light Thunderstorms and Rain
3:53 AM 63.0 °F 59.0 °F 87% 29.89 in 10.0 mi ESE 5.8 mph - 0.05 in Rain , Thunderstorm Light Thunderstorms and Rain
4:16 AM 63.0 °F 59.0 °F 87% 29.91 in 10.0 mi ESE 25.3 mph 31.1 mph 0.00 in Rain Light Rain
4:53 AM 63.0 °F 59.0 °F 87% 29.75 in 10.0 mi SSE 21.9 mph - 0.00 in   Mostly Cloudy
5:53 AM 63.0 °F 59.0 °F 87% 29.81 in 10.0 mi NNE 11.5 mph - N/A   Mostly Cloudy
6:53 AM 62.1 °F 57.9 °F 86% 29.83 in 10.0 mi NE 11.5 mph - N/A   Mostly Cloudy
7:29 AM 61.0 °F 57.9 °F 90% 29.98 in 10.0 mi NE 12.7 mph - N/A   Mostly Cloudy
7:53 AM 62.1 °F 59.0 °F 90% 29.86 in 10.0 mi NE 17.3 mph 20.7 mph N/A   Scattered Clouds
8:39 AM 64.0 °F 59.0 °F 84% 30.01 in 10.0 mi NE 16.1 mph - N/A   Mostly Cloudy
8:53 AM 64.0 °F 59.0 °F 84% 29.89 in 10.0 mi NE 16.1 mph - N/A   Mostly Cloudy
9:38 AM 66.0 °F 60.1 °F 81% 30.03 in 10.0 mi NE 12.7 mph - N/A   Mostly Cloudy
9:53 AM 66.9 °F 60.1 °F 79% 29.91 in 10.0 mi NE 10.4 mph - N/A   Mostly Cloudy
10:05 AM 66.0 °F 60.1 °F 81% 30.05 in 10.0 mi NE 12.7 mph - N/A Thunderstorm Thunderstorm
10:06 AM 64.9 °F 60.1 °F 84% 30.05 in 10.0 mi NNE 10.4 mph - N/A Thunderstorm Thunderstorm
10:07 AM 64.9 °F 60.1 °F 84% 30.05 in 10.0 mi NNE 9.2 mph - N/A Thunderstorm Thunderstorm
10:45 AM 66.0 °F 62.1 °F 87% 30.01 in 10.0 mi NE 11.5 mph - 0.02 in   Mostly Cloudy
10:53 AM 66.9 °F 61.0 °F 81% 29.89 in 10.0 mi NE 12.7 mph - 0.02 in   Mostly Cloudy
11:01 AM 68.0 °F 62.1 °F 81% 30.01 in 10.0 mi NE 12.7 mph - N/A   Mostly Cloudy
11:40 AM 69.1 °F 61.0 °F 75% 30.01 in 10.0 mi NE 12.7 mph - N/A   Mostly Cloudy
11:53 AM 71.1 °F 62.1 °F 73% 29.89 in 10.0 mi NE 12.7 mph 18.4 mph N/A   Mostly Cloudy
12:06 PM 69.8 °F 62.6 °F 78% 30.03 in 10.0 mi East 6.9 mph - N/A   Overcast
12:20 PM 69.1 °F 61.0 °F 75% 30.05 in 10.0 mi SE 15.0 mph - N/A   Overcast
12:42 PM 69.1 °F 61.0 °F 75% 30.02 in 10.0 mi East 10.4 mph - N/A   Overcast
12:53 PM 69.1 °F 62.1 °F 78% 29.91 in 10.0 mi East 9.2 mph - 0.00 in Rain Light Rain
1:09 PM 69.1 °F 62.1 °F 78% 30.03 in 10.0 mi ESE 9.2 mph - 0.00 in Thunderstorm Thunderstorm
1:53 PM 66.9 °F 63.0 °F 87% 29.89 in 8.0 mi SSE 10.4 mph - 0.00 in Rain , Thunderstorm Light Thunderstorms and Rain
2:53 PM 66.9 °F 61.0 °F 81% 29.88 in 10.0 mi South 4.6 mph - 0.04 in Thunderstorm Thunderstorm
3:53 PM 69.1 °F 61.0 °F 75% 29.86 in 10.0 mi Calm Calm - 0.00 in Thunderstorm Mostly Cloudy
4:01 PM 70.0 °F 60.1 °F 71% 29.96 in 10.0 mi Calm Calm - N/A   Mostly Cloudy
4:53 PM 73.0 °F 61.0 °F 66% 29.81 in 10.0 mi South 10.4 mph - 0.00 in   Mostly Cloudy
5:53 PM 73.0 °F 59.0 °F 61% 29.78 in 10.0 mi South 13.8 mph - N/A   Mostly Cloudy
6:53 PM 73.0 °F 62.1 °F 68% 29.77 in 10.0 mi South 10.4 mph - N/A   Mostly Cloudy
7:53 PM 73.0 °F 63.0 °F 71% 29.76 in 10.0 mi SSE 12.7 mph - N/A   Mostly Cloudy
8:53 PM 71.1 °F 62.1 °F 73% 29.76 in 10.0 mi SE 10.4 mph - N/A   Scattered Clouds
9:53 PM 69.1 °F 62.1 °F 78% 29.74 in 10.0 mi SE 11.5 mph - N/A   Partly Cloudy
10:53 PM 66.9 °F 63.0 °F 87% 29.74 in 10.0 mi SE 16.1 mph - N/A   Partly Cloudy
11:53 PM 66.9 °F 62.1 °F 84% 29.76 in 10.0 mi East 12.7 mph - N/A   Partly Cloudy